Location: Unspecified
(0.0000°N, 0.0000°E)
Time: 05:09:18
(UTC+00:00)

Transit 2A Rocket - All Passes

Search period start: 21 May 2026 00:00
Search period end: 31 May 2026 00:00
Orbit: 587 x 895 km, 66.7° (Epoch: 20 May)

Date Brightness Start Highest point End Pass type
(mag) Time Alt. Az. Time Alt. Az. Time Alt. Az.
21 May - 03:39:19 10° N 03:43:25 49° ENE 03:47:40 10° SE visible
21 May - 14:28:15 10° SE 14:29:53 11° ESE 14:31:31 10° E daylight
21 May - 16:06:15 10° SSW 16:12:09 59° WNW 16:17:51 10° N daylight
22 May - 02:54:50 10° NNE 02:57:48 18° ENE 03:00:49 10° ESE night (unlit)
22 May - 04:37:03 10° WNW 04:39:49 17° WSW 04:42:40 10° SSW night (unlit)
22 May - 15:20:32 10° SSW 15:26:29 66° ESE 15:32:14 10° NNE daylight
23 May - 03:50:04 10° NW 03:54:07 43° WSW 03:58:20 10° S night (unlit)
23 May - 14:35:34 10° S 14:40:47 31° ESE 14:45:51 10° NE daylight
23 May - 16:18:26 10° WSW 16:22:55 22° WNW 16:27:16 10° NNW daylight
24 May - 03:04:15 10° NNW 03:08:29 66° ENE 03:12:51 10° SSE night (unlit)
24 May - 13:51:58 10° SE 13:55:02 14° ESE 13:58:03 10° E daylight
24 May - 15:31:32 10° SW 15:37:16 47° WNW 15:42:47 10° N daylight
25 May - 02:19:24 10° NNE 02:22:52 24° ENE 02:26:24 10° SE night (unlit)
25 May - 04:02:56 10° W 04:04:55 13° WSW 04:06:56 10° SW night (unlit)
25 May - 14:45:36 10° SSW 14:51:37 82° ESE 14:57:24 10° NNE daylight
26 May - 03:15:21 10° NW 03:19:11 33° WSW 03:23:12 10° S night (unlit)
26 May - 14:00:24 10° S 14:05:55 38° ESE 14:11:15 10° NE daylight
26 May - 15:44:12 10° WSW 15:48:01 18° WNW 15:51:45 10° NNW daylight
27 May - 02:29:16 10° NNW 02:33:32 88° ENE 02:37:59 10° SSE night (unlit)
27 May - 13:16:16 10° SSE 13:20:10 18° ESE 13:24:00 10° ENE daylight
27 May - 14:56:54 10° SW 15:02:23 38° WNW 15:07:40 10° N daylight
28 May - 01:44:07 10° N 01:47:54 31° ENE 01:51:50 10° SE night (unlit)
28 May - 14:10:44 10° SSW 14:16:44 82° WNW 14:22:29 10° NNE daylight
29 May - 01:00:37 10° NE 01:02:17 12° ENE 01:03:59 10° E night (unlit)
29 May - 02:40:43 10° NW 02:44:16 25° WSW 02:47:58 10° SSW night (unlit)
29 May - 13:25:18 10° S 13:31:02 47° ESE 13:36:33 10° NE daylight
29 May - 15:10:14 10° W 15:13:08 14° WNW 15:15:59 10° NW daylight
30 May - 01:54:21 10° NNW 01:58:34 69° WSW 02:03:03 10° SSE night (unlit)
30 May - 12:40:48 10° SSE 12:45:19 22° ESE 12:49:42 10° ENE daylight
30 May - 14:22:20 10° SW 14:27:29 30° WNW 14:32:27 10° N daylight
